Location: Chilton Park
(37.7711°N, 100.0276°W)
Time: 08:39:32
(UTC+00:00)

IRAS Rocket - Visible Passes

Search period start: 26 June 2022 00:00
Search period end: 06 July 2022 00:00
Orbit: 848 x 877 km, 100.1° (Epoch: 25 June)

Date Brightness Start Highest point End Pass type
(mag) Time Alt. Az. Time Alt. Az. Time Alt. Az.
26 Jun 4.8 03:48:37 10° N 03:54:08 60° WNW 03:59:36 10° SSW visible
27 Jun 4.5 03:40:10 10° N 03:45:46 72° WNW 03:51:17 10° SSW visible
28 Jun 4.3 03:31:44 10° NNE 03:37:22 86° WNW 03:42:56 10° SSW visible
28 Jun 7.1 05:15:22 10° NW 05:17:16 12° WNW 05:19:11 10° WNW visible
29 Jun 4.2 03:23:21 10° NNE 03:28:59 80° ESE 03:34:32 10° SSW visible
29 Jun 6.9 05:06:12 10° NNW 05:09:00 14° WNW 05:11:49 10° W visible
30 Jun 4.2 03:14:59 10° NNE 03:20:34 66° ESE 03:26:04 10° S visible
30 Jun 6.8 04:57:17 10° NNW 05:00:44 17° WNW 05:04:10 10° W visible
01 Jul 4.4 03:06:40 10° NNE 03:12:09 55° ESE 03:17:33 10° S visible
01 Jul 6.6 04:48:31 10° NNW 04:52:27 20° WNW 04:56:23 10° WSW visible
02 Jul 4.6 02:58:22 10° NNE 03:03:43 45° E 03:08:59 10° S visible
02 Jul 6.4 04:39:49 10° NNW 04:44:10 24° WNW 04:48:28 10° WSW visible
03 Jul 4.8 02:50:07 10° NNE 02:55:16 37° E 03:00:21 10° SSE visible
03 Jul 6.1 04:31:11 10° N 04:35:51 28° WNW 04:40:28 10° WSW visible
04 Jul 5.0 02:41:54 10° NE 02:46:49 31° E 02:51:39 10° SSE visible
04 Jul 5.8 04:22:35 10° N 04:27:31 33° WNW 04:32:24 10° SW visible
05 Jul 5.3 02:33:46 10° NE 02:38:20 26° E 02:42:52 10° SSE visible
05 Jul 5.5 04:14:02 10° N 04:19:11 40° WNW 04:24:18 10° SW visible
